Weather History for Redmond, OR

Change the Weather History Date:

Friday, August 30, 2013

  Actual Average Record
Temperature  
Mean Temperature 67 °F 62 °F  
Max Temperature 83 °F 81 °F 101 °F (1967)
Min Temperature 50 °F 42 °F 31 °F (1965)
Degree Days  
Heating Degree Days 0 4  
Month to date heating degree days 16 76  
Since 1 June heating degree days 221 362  
Since 1 July heating degree days 36 145  
Cooling Degree Days 2 1  
Month to date cooling degree days 96 79  
Year to date cooling degree days 311 205  
Since 1 June cooling degree days 302 200  
Growing Degree Days 17 (Base 50)    
Moisture  
Dew Point 49 °F    
Average Humidity 58    
Maximum Humidity 89    
Minimum Humidity 26    
Precipitation  
Precipitation 0.00 in 0.01 in 0.69 in (1989)
Month to date precipitation 1.16 0.48  
Year to date precipitation 3.08 5.71  
Sea Level Pressure  
Sea Level Pressure 30.07 in    
Wind  
Wind Speed 5 mph (NNW)    
Max Wind Speed 15 mph    
Max Gust Speed 20 mph    
Visibility 10 miles    
Events      
T = Trace of Precipitation, MM = Missing Value Source: NWS Daily Summary

Daily Weather History Graph

Daily Weather History Graph

Search for Another Location

Airport:

Trip Planner

Search our weather history database for the weather conditions in past years. The results will help you decide how hot, cold, wet, or windy it might be!

Date:

Astronomy

Aug. 30, 2013 Rise Set
Actual Time 6:25 AM PDT 7:43 PM PDT
Civil Twilight 5:55 AM PDT 8:13 PM PDT
Nautical Twilight 5:19 AM PDT 8:49 PM PDT
Astronomical Twilight 4:41 AM PDT 9:27 PM PDT
Moon 1:01 AM PDT (8/30) 4:09 PM PDT (8/30)
Length of Visible Light 14h 18m
Length of Day
13h 18m
Waning Crescent, 28% of the Moon is Illuminated
Aug 30
Waning Crescent
Sep 5
New
Sep 12
First Quarter
Sep 19
Full
Sep 26
Last Quarter

Hourly Weather History & Observations

Time (PDT) Temp. Dew Point Humidity Pressure Visibility Wind Dir Wind Speed Gust Speed Precip Events Conditions
12:56 AM 57.0 °F 51.1 °F 81% 30.07 in 10.0 mi Calm Calm - N/A   Clear
1:56 AM 55.0 °F 50.0 °F 83% 30.08 in 10.0 mi Calm Calm - N/A   Scattered Clouds
2:56 AM 53.1 °F 48.9 °F 86% 30.08 in 10.0 mi Calm Calm - N/A   Clear
3:56 AM 52.0 °F 48.9 °F 89% 30.08 in 10.0 mi SSE 3.5 mph - N/A   Clear
4:56 AM 53.1 °F 48.9 °F 86% 30.09 in 10.0 mi South 5.8 mph - N/A   Clear
5:56 AM 52.0 °F 48.9 °F 89% 30.12 in 10.0 mi Calm Calm - N/A   Scattered Clouds
6:56 AM 52.0 °F 48.9 °F 89% 30.14 in 10.0 mi Calm Calm - N/A   Clear
7:56 AM 59.0 °F 51.1 °F 75% 30.14 in 10.0 mi Calm Calm - N/A   Clear
8:56 AM 64.0 °F 51.1 °F 63% 30.14 in 10.0 mi Calm Calm - N/A   Clear
9:56 AM 69.1 °F 51.1 °F 53% 30.13 in 10.0 mi ENE 4.6 mph - N/A   Clear
10:56 AM 72.0 °F 50.0 °F 46% 30.12 in 10.0 mi WNW 4.6 mph - N/A   Clear
11:56 AM 75.9 °F 48.9 °F 38% 30.09 in 10.0 mi Variable 3.5 mph - N/A   Clear
12:56 PM 75.9 °F 48.9 °F 38% 30.08 in 10.0 mi Variable 4.6 mph - N/A   Scattered Clouds
1:56 PM 78.1 °F 48.0 °F 35% 30.06 in 10.0 mi Variable 3.5 mph - N/A   Clear
2:56 PM 81.0 °F 46.9 °F 30% 30.03 in 10.0 mi North 10.4 mph 17.3 mph N/A   Partly Cloudy
3:56 PM 81.0 °F 46.0 °F 29% 30.02 in 10.0 mi Calm Calm - N/A   Clear
4:56 PM 82.0 °F 45.0 °F 27% 30.00 in 10.0 mi NNW 8.1 mph - N/A   Clear
5:56 PM 81.0 °F 46.0 °F 29% 29.99 in 10.0 mi North 10.4 mph - N/A   Clear
6:56 PM 79.0 °F 46.0 °F 31% 29.99 in 10.0 mi NNW 9.2 mph - N/A   Clear
7:56 PM 73.0 °F 46.0 °F 38% 30.01 in 10.0 mi NNW 9.2 mph - N/A   Clear
8:56 PM 69.1 °F 50.0 °F 51% 30.03 in 10.0 mi NNW 10.4 mph - N/A   Clear
9:56 PM 66.0 °F 50.0 °F 56% 30.04 in 10.0 mi NW 9.2 mph - N/A   Clear
10:56 PM 64.0 °F 50.0 °F 60% 30.04 in 10.0 mi NW 8.1 mph - N/A   Clear
11:56 PM 62.1 °F 51.1 °F 67% 30.04 in 10.0 mi NW 6.9 mph - N/A   Clear